Location: Caltech
(34.1382°N, 118.1253°W)
Time: 04:49:35
(UTC-07:00)

Uribyol 2 - Visible Passes

Search period start: 01 August 2015 00:00
Search period end: 11 August 2015 00:00
Orbit: 782 x 797 km, 98.7° (Epoch: 01 August)

Date Brightness Start Highest point End Pass type
(mag) Time Alt. Az. Time Alt. Az. Time Alt. Az.
01 Aug ? 02:44:11 10° NNE 02:48:29 34° E 02:48:29 34° E visible
01 Aug ? 04:24:06 10° NNW 04:28:11 23° WNW 04:29:12 22° W visible
02 Aug ? 02:15:46 10° NE 02:18:30 17° E 02:18:30 17° E visible
02 Aug ? 03:53:53 10° N 03:58:48 45° WNW 03:59:13 44° W visible
03 Aug ? 03:24:08 10° NNE 03:29:14 87° N 03:29:14 87° N visible
04 Aug ? 02:54:49 10° NNE 02:59:15 44° E 02:59:15 44° E visible
04 Aug ? 04:35:21 10° NNW 04:38:55 18° WNW 04:39:58 17° W visible
05 Aug ? 02:26:03 10° NE 02:29:16 22° E 02:29:16 22° E visible
05 Aug ? 04:04:53 10° N 04:09:34 35° WNW 04:09:59 34° W visible
06 Aug ? 01:59:06 10° ENE 01:59:17 10° E 01:59:17 10° E visible
06 Aug ? 03:34:59 10° N 03:40:00 70° WNW 03:40:00 70° WNW visible
07 Aug ? 03:05:30 10° NNE 03:10:01 55° ENE 03:10:01 55° ENE visible
07 Aug ? 04:46:47 10° NNW 04:49:39 15° WNW 04:50:44 13° W visible
08 Aug ? 02:36:30 10° NE 02:40:02 27° ENE 02:40:02 27° ENE visible
08 Aug ? 04:15:57 10° NNW 04:20:20 28° WNW 04:20:44 27° WNW visible
09 Aug ? 02:08:27 10° ENE 02:10:02 13° ENE 02:10:02 13° ENE visible
09 Aug ? 03:45:53 10° N 03:50:45 54° WNW 03:50:45 54° WNW visible
10 Aug ? 03:16:15 10° NNE 03:20:46 65° NE 03:20:46 65° NE visible
10 Aug ? 04:58:40 10° NW 05:00:21 11° WNW 05:01:29 10° WNW visible
